www.pogodaiklimat.ru

Погода и климат >> Архив погоды >> Канада >> Henderickson Auto


ПОГОДА в Henderickson Auto

  • Прогноз погоды в Henderickson Auto
  • Монитор погоды в Henderickson Auto
  • Климат города

АРХИВ ПОГОДЫ в Henderickson Auto

Время (UTC), дата Ветер
(напр.,м/с)
 
Видим.   Явления Облачность Т
(С)
Тd
(С)
f
(%)
Тe
(С)
Тes
(С)
Комфортность P
(гПа)
Po
(гПа)
Тmin
(С)
Tmax
(С)
R
(мм)
R24
(мм)
S
(см)
21 18.04 З 4 н/о н/о +3.5 -9.5 38 0 0 1021.9 854.6
00 19.04 З 3 н/о н/о +5.1 -9.3 34 +3 +3 1022.8 854.5 -14.8 +6.7
03 19.04 З 1 н/о н/о +0.1 -8.2 54 0 0 1021.4 854.7
06 19.04 З 1 н/о н/о -8.4 -10.2 87 -9 -9 1022.4 854.8 -14.8 +6.7 18
09 19.04 З 1 н/о н/о -12.1 -13.7 88 -12 -12 1023.0 854.8
12 19.04 З 1 н/о н/о -13.7 -15.4 87 -14 -14 1022.6 854.4 -14.0 +6.7 76
15 19.04 штиль 0 н/о н/о -2.4 -6.9 71 -3 -3 1020.9 853.9
18 19.04 Ю 2 н/о н/о +7.9 -10.1 27 +7 +7 1019.2 852.8 -14.6 +8.5
21 19.04 З 3 н/о н/о +9.3 -9.9 25 +8 +8 1018.1 851.6
00 20.04 ЮЗ 2 н/о н/о +5.9 -9.0 33 +4 +4 1018.7 851.3 -14.6 +10.4
03 20.04 Ю 1 н/о н/о +4.5 -8.1 39 +4 +4 1016.2 850.8
06 20.04 З 1 н/о н/о -4.6 -6.8 85 -5 -5 1016.7 851.3 -14.6 +10.4
09 20.04 СЗ 1 н/о н/о -6.9 -8.4 89 -9 -9 1016.3 850.9
12 20.04 ЮЗ 1 н/о н/о -7.7 -8.9 91 -8 -8 1017.2 850.9 -8.0 +10.4 73
15 20.04 СЗ 1 н/о н/о -0.5 -4.8 73 -1 -1 1016.6 851.4
18 20.04 В 1 н/о н/о +7.4 -5.8 39 +7 +7 1016.9 851.4 -8.0 +7.4
21 20.04 ЮЗ 2 н/о н/о +9.2 -6.8 32 +9 +9 1016.3 850.8
00 21.04 ЮЗ 1 н/о н/о +8.8 -6.0 35 +9 +9 1015.0 849.6 -8.0 +9.6
03 21.04 С 1 н/о н/о +2.4 -3.6 65 +2 +2 1013.8 848.7
06 21.04 З 1 н/о н/о -2.7 -4.5 87 -3 -3 1012.2 847.8 -8.0 +9.6
09 21.04 штиль 0 н/о н/о -3.0 -4.9 87 -4 -4 1010.0 846.2
12 21.04 З 1 н/о н/о -2.8 -4.9 85 -5 -5 1008.0 844.5 -3.4 +9.6 72
15 21.04 СЗ 1 н/о н/о +4.0 -3.3 59 +3 +3 1008.0 844.5
18 21.04 З 2 н/о н/о +3.2 -1.1 73 +1 +1 1010.5 845.7 -3.4 +6.8
21 21.04 З 6 н/о н/о +6.7 -6.3 39 +3 +3 1011.1 846.7
00 22.04 З 5 н/о н/о +4.1 -7.0 44 -0 -0 1014.4 849.1 -3.4 +6.8
03 22.04 З 3 н/о н/о -0.3 -7.6 58 -5 -5 1016.5 851.2
06 22.04 З 5 н/о н/о -0.4 -10.7 46 -6 -6 1016.9 851.5 -3.4 +6.8 0
09 22.04 З 6 н/о н/о -1.3 -10.4 50 -7 -7 1017.9 852.7
12 22.04 З 4 н/о н/о -1.7 -10.6 51 -7 -7 1020.4 854.3 -1.9 +6.8 71
15 22.04 З 5 н/о н/о +0.4 -10.9 42 -5 -5 1022.7 855.8
18 22.04 З 5 н/о н/о +2.6 -10.7 37 -2 -2 1024.4 857.6 -1.9 +3.7
21 22.04 З 4 н/о н/о +5.1 -11.0 30 +2 +2 1024.9 858.3
00 23.04 З 4 н/о н/о +4.8 -12.3 28 +2 +2 1025.6 858.8 -1.9 +5.8
03 23.04 З 2 н/о н/о +1.0 -11.5 39 -2 -2 1026.6 859.4
06 23.04 З 1 н/о н/о -6.3 -10.1 74 -9 -9 1028.8 860.3 -6.4 +5.8 10
09 23.04 З 1 н/о н/о -10.5 -12.4 86 -13 -13 1030.0 861.1
12 23.04 З 1 н/о н/о -11.8 -13.2 89 -12 -12 1030.5 861.2 -12.1 +5.8 70
15 23.04 штиль 0 н/о н/о +0.9 -7.2 55 0 0 1029.1 861.5
18 23.04 СЗ 2 н/о н/о +9.9 -11.7 21 +10 +10 1028.3 861.1 -12.3 +10.0
21 23.04 СЗ 3 н/о н/о +13.0 -10.3 19 +12 +12 1027.7 860.4
00 24.04 З 3 н/о н/о +13.7 -11.3 16 +13 +13 1027.4 860.1 -12.3 +14.1
03 24.04 СЗ 2 н/о н/о +4.8 -6.8 43 +3 +3 1026.4 859.9
06 24.04 СЗ 1 н/о н/о -2.9 -6.7 75 -3 -3 1026.2 859.9 -12.3 +14.1
09 24.04 З 1 н/о н/о -3.7 -6.9 78 -4 -4 1025.5 859.7
12 24.04 З 1 н/о н/о -3.6 -6.7 79 -6 -6 1024.5 858.9 -4.2 +14.1 65
15 24.04 З 1 н/о н/о -1.6 -5.9 72 -2 -2 1024.7 858.0
18 24.04 ЮЗ 2 н/о н/о +14.4 -15.2 11 +14 +14 1021.4 856.6 -4.2 +14.9
21 24.04 З 3 н/о н/о +14.3 -12.3 15 +14 +14 1020.5 855.7
00 25.04 З 3 н/о н/о +12.5 -11.7 17 +12 +12 1019.4 854.5 -4.2 +15.4
03 25.04 СЗ 3 н/о н/о +8.5 -8.8 28 +7 +7 1019.0 853.8
06 25.04 З 3 н/о н/о +4.6 -3.0 58 +1 +1 1018.4 855.2 -4.2 +15.4
09 25.04 СЗ 1 н/о н/о -0.2 -3.8 77 -2 -2 1020.2 856.0
12 25.04 С 1 н/о н/о -0.4 -3.8 78 -2 -2 1021.1 856.4 -1.1 +15.4 60
15 25.04 З 3 н/о н/о +5.2 -5.5 46 +3 +3 1021.2 856.8
18 25.04 ЮЗ 2 н/о н/о +9.4 -8.6 27 +9 +9 1020.4 856.1 -1.6 +9.5

 

Местоположение метеостанции Henderickson Auto (Канада): широта 53.78 долгота -118.40 высота над уровнем моря 1432 м.

В архиве по умолчанию представлена погода в Henderickson Auto за последнюю неделю. Архивные данные за месяц целиком и за предыдущие месяцы, начиная с января 2011 года, Вы можете получить, выбрав интересующий диапазон дат из раскрывающегося списка и нажав кнопку "Ввод!".


*Определитесь, кто Вы:
робот инопланетянин человек

Внимание! Время в таблицах - всемирное. Для получения местного времени необходимо прибавить поправку, которая в Henderickson Auto равна -7 ч.

Смотрите также архив погоды в соседних городах и на ближайших метеорологических станциях:

Погода в Willow Creek 1 (Канада) (45 км)
Погода в Jasper Warden (Канада) (98 км)
Погода в Jasper (Канада) (104 км)
Погода в Edson AB (Канада) (134 км)
Погода в Grande Prairie (Канада) (158 км)
Погода в Valley View Agdm (Канада) (166 км)
Погода в Beaverlodge Cda (Канада) (171 км)
Погода в Teepee Creek Agcm (Канада) (175 км)
Погода в Whitecourt (Канада) (181 км)
Погода в Whitecourt Alta (Канада) (181 км)

Пояснения к столбцам:

Ветер - указаны скорость ветра в м/с - средняя за 10 мин, порывы в срок и между сроками (в фигурных скобках) и направление, откуда дует ветер: С - северный, СВ - северо-восточный, В - восточный, ЮВ - юго-восточный, Ю - южный, ЮЗ - юго-западный, З - западный, СЗ - северо-западный.
Видимость - горизонтальная дальность видимости в метрах или километрах. При видимости от 1 до 10 км при отсутствии осадков обычно наблюдается дымка, при ухудшении видимости до 1 км и менее - туман. В сухую погоду видимость может ухудшаться дымом, пылью или мглою.
Явления - указаны атмосферные явления, наблюдавшиеся в срок или в последний час перед сроком; фигурными скобками обозначены явления, наблюдавшиеся между сроками (за 1-3 часа до срока); квадратными скобками обозначены град или гололедные отложения с указанием их диаметра в мм.
Облачность - указаны через наклонную черту общая и нижняя облачность в баллах и высота нижней границы облаков в метрах; квадратными скобками обозначены формы облаков: Ci - перистые, Cs - перисто-слоистые, Cc - перисто-кучевые, Ac - высококучевые, As - высокослоистые, Sc - слоисто-кучевые, Ns - слоисто-дождевые, Cu - кучевые, Cb - кучево-дождевые. Подробнее классификацию облаков см. в Атласе облаков (PDF).
T - Температура воздуха - температура, измеренная на высоте 2 м над землей.
Td - Температура точки росы - температура, при понижении до которой содержащийся в воздухе водяной пар достигнет насыщения.
f - Относительная влажность воздуха - влажноcть воздуха, измеренная на высоте 2 м над землей.
Te - Эффективная температура - температура, которую ощущает одетый по сезону человек в тени. Характеристика душности погоды. При расчете учитывается влияние влажности воздуха и скорости ветра на теплоощущения человека.
Tes - Эффективная температура на солнце - температура, которую ощущает человек, с поправкой на солнечный нагрев. Характеристика знойности погоды. Зависит от высоты солнца над горизонтом, облачности и скорости ветра. Ночью, в пасмурную погоду, а также при ветре 12 м/с и более поправка равна нулю.
P - Атмосферное давление - приведенное к уровню моря атмосферное давление.
Po - Атмосферное давление - измеренное на уровне метеостанции атмосферное давление.
Tmin - Минимальная температура - минимум температуры воздуха на высоте 2 м над землей.
Tmax - Максимальная температура - максимум температуры воздуха на высоте 2 м над землей.
R - Количество осадков - Количество выпавших осадков за период времени, мм. При наведении курсора мыши на число - период времени, за который выпало указанное количество осадков.
R24 - Количество осадков - Количество выпавших осадков за 24 часа, мм.
S - Снежный покров - Высота снежного покрова, см. При наведении курсора мыши на число - состояние снежного покрова и степень покрытия местности в баллах.